Location: Philomena
(55.1756°N, 111.6233°W)
Time: 22:33:41
(UTC+00:00)

UNISAT 6 - Visible Passes

Search period start: 29 November 2023 00:00
Search period end: 09 December 2023 00:00
Orbit: 598 x 673 km, 97.7° (Epoch: 29 November)

Date Brightness Start Highest point End Pass type
(mag) Time Alt. Az. Time Alt. Az. Time Alt. Az.
29 Nov ? 00:10:12 10° NNE 00:14:31 40° E 00:18:43 10° SSE visible
29 Nov ? 01:46:48 10° N 01:50:56 34° WNW 01:54:58 10° SW visible
30 Nov ? 00:32:12 10° NNE 00:36:45 62° ESE 00:41:09 10° S visible
30 Nov ? 02:09:12 10° N 02:12:51 24° WNW 02:16:26 10° WSW visible
01 Dec ? 00:54:19 10° NNE 00:58:54 87° WNW 01:03:20 10° SSW visible
01 Dec ? 02:31:44 10° NNW 02:34:43 17° NW 02:37:39 10° W visible
01 Dec ? 23:40:31 10° NE 23:44:08 23° E 23:47:42 10° SE visible
02 Dec ? 01:16:29 10° N 01:20:57 58° WNW 01:25:18 10° SSW visible
02 Dec ? 02:54:34 10° NNW 02:56:30 13° NW 02:58:25 10° WNW visible
03 Dec ? 00:02:17 10° NNE 00:06:26 34° E 00:10:28 10° SSE visible
03 Dec ? 01:38:44 10° N 01:42:57 39° WNW 01:47:02 10° SW visible
04 Dec ? 00:24:13 10° NNE 00:28:39 53° E 00:32:57 10° S visible
04 Dec ? 02:01:04 10° N 02:04:51 27° WNW 02:08:34 10° WSW visible
05 Dec ? 00:46:14 10° NNE 00:50:46 81° ESE 00:55:10 10° SSW visible
05 Dec ? 02:23:31 10° N 02:26:41 19° NW 02:29:49 10° W visible
06 Dec ? 01:08:20 10° N 01:12:48 66° WNW 01:17:10 10° SSW visible
06 Dec ? 02:46:11 10° NNW 02:48:27 14° NW 02:50:43 10° W visible
06 Dec ? 23:54:13 10° NNE 23:58:10 30° E 00:02:01 10° SSE visible
07 Dec ? 01:30:31 10° N 01:34:47 44° WNW 01:38:56 10° SW visible
08 Dec ? 00:16:03 10° NNE 00:20:22 45° E 00:24:32 10° S visible
08 Dec ? 01:52:46 10° N 01:56:40 30° WNW 02:00:29 10° WSW visible
